�������l�o���
Date,Time,MP-1(��Sv/h),MP-2(��Sv/h),MP-3(��Sv/h),MP-4(��Sv/h),MP-5(��Sv/h),MP-6(��Sv/h),MP-7(��Sv/h),MP-8(��Sv/h),����,����(m/s),���J
2019/10/17,00:00,0.713,1.018,0.673,1.248,0.883,0.411,0.714,0.677,�k�k��,2.3,��
2019/10/17,00:10,0.715,1.016,0.676,1.248,0.883,0.411,0.715,0.678,�k,1.9,��
2019/10/17,00:20,0.713,1.014,0.673,1.249,0.884,0.410,0.714,0.679,�k�k��,2.0,��
2019/10/17,00:30,0.713,1.015,0.673,1.247,0.883,0.411,0.715,0.679,�k�k��,1.9,��
2019/10/17,00:40,0.715,1.016,0.675,1.247,0.883,0.412,0.715,0.677,�k�k��,2.1,��
2019/10/17,00:50,0.713,1.014,0.672,1.247,0.881,0.412,0.713,0.679,�k�k��,1.9,��
2019/10/17,01:00,0.713,1.014,0.674,1.248,0.881,0.410,0.714,0.677,�k�k��,2.5,��
2019/10/17,01:10,0.713,1.016,0.674,1.245,0.883,0.412,0.715,0.677,�k�k��,2.7,��
2019/10/17,01:20,0.713,1.016,0.674,1.247,0.880,0.410,0.714,0.679,�k�k��,3.3,��
2019/10/17,01:30,0.712,1.015,0.676,1.249,0.882,0.411,0.713,0.678,�k�k��,3.8,��
2019/10/17,01:40,0.713,1.015,0.672,1.251,0.881,0.411,0.714,0.677,�k�k��,2.5,��
2019/10/17,01:50,0.712,1.012,0.672,1.249,0.882,0.411,0.715,0.678,�k��,3.2,��
2019/10/17,02:00,0.712,1.016,0.673,1.248,0.883,0.411,0.715,0.677,�k��,3.3,��
2019/10/17,02:10,0.714,1.016,0.672,1.248,0.880,0.410,0.714,0.677,���k��,2.2,��
2019/10/17,02:20,0.713,1.012,0.674,1.247,0.881,0.412,0.714,0.679,���k��,2.3,��
2019/10/17,02:30,0.713,1.016,0.672,1.250,0.880,0.410,0.714,0.678,���k��,1.6,��
2019/10/17,02:40,0.713,1.014,0.673,1.250,0.881,0.412,0.714,0.677,���k��,2.1,��
2019/10/17,02:50,0.712,1.014,0.674,1.246,0.883,0.410,0.713,0.678,���k��,2.1,��
2019/10/17,03:00,0.711,1.016,0.675,1.249,0.882,0.413,0.714,0.678,���쐼,1.7,��
2019/10/17,03:10,0.712,1.015,0.674,1.249,0.879,0.412,0.715,0.678,���쐼,1.5,��
2019/10/17,03:20,0.712,1.015,0.672,1.248,0.882,0.410,0.713,0.679,���k��,1.4,��
2019/10/17,03:30,0.711,1.013,0.672,1.249,0.879,0.410,0.714,0.679,��,1.7,��
2019/10/17,03:40,0.712,1.016,0.674,1.249,0.881,0.411,0.715,0.676,���k��,1.2,��
2019/10/17,03:50,0.713,1.012,0.672,1.246,0.881,0.411,0.714,0.677,���k��,1.8,��
2019/10/17,04:00,0.711,1.012,0.674,1.247,0.881,0.410,0.714,0.678,���k��,1.6,��
2019/10/17,04:10,0.711,1.012,0.672,1.247,0.882,0.410,0.715,0.679,�k��,1.0,��
2019/10/17,04:20,0.711,1.014,0.673,1.247,0.880,0.411,0.714,0.678,�k��,0.6,��
2019/10/17,04:30,0.711,1.014,0.673,1.247,0.882,0.411,0.715,0.678,�k��,1.1,��
2019/10/17,04:40,0.713,1.013,0.671,1.246,0.885,0.410,0.713,0.679,�k��,0.9,��
2019/10/17,04:50,0.712,1.013,0.672,1.246,0.880,0.411,0.714,0.678,���k��,1.1,��
2019/10/17,05:00,0.712,1.013,0.671,1.247,0.881,0.411,0.713,0.676,���쐼,1.5,��
2019/10/17,05:10,0.710,1.013,0.672,1.249,0.880,0.411,0.715,0.678,�쐼,1.0,��
2019/10/17,05:20,0.710,1.013,0.671,1.247,0.882,0.411,0.714,0.677,���쐼,0.9,��
2019/10/17,05:30,0.711,1.011,0.672,1.248,0.882,0.409,0.715,0.679,-,CALM,��
2019/10/17,05:40,0.711,1.012,0.670,1.248,0.880,0.411,0.715,0.678,���k��,0.6,��
2019/10/17,05:50,0.710,1.013,0.671,1.248,0.880,0.410,0.713,0.676,�k��,1.1,��
2019/10/17,06:00,0.709,1.015,0.672,1.249,0.881,0.409,0.713,0.679,���k��,1.2,��
2019/10/17,06:10,0.710,1.014,0.672,1.248,0.882,0.409,0.714,0.677,���k��,0.8,��
2019/10/17,06:20,0.710,1.012,0.672,1.246,0.881,0.409,0.714,0.677,�k��,1.2,��
2019/10/17,06:30,0.710,1.013,0.672,1.249,0.881,0.410,0.714,0.679,�k��,1.0,��
2019/10/17,06:40,0.713,1.010,0.673,1.248,0.880,0.411,0.714,0.676,�k��,1.5,��
2019/10/17,06:50,0.708,1.014,0.672,1.248,0.882,0.410,0.713,0.678,�k�k��,1.3,��
2019/10/17,07:00,0.711,1.015,0.672,1.246,0.881,0.411,0.715,0.679,�k��,0.8,��
2019/10/17,07:10,0.712,1.012,0.672,1.249,0.881,0.409,0.715,0.678,�k�k��,0.7,��
2019/10/17,07:20,0.713,1.011,0.672,1.248,0.882,0.410,0.714,0.678,-,CALM,��
2019/10/17,07:30,0.712,1.014,0.670,1.249,0.880,0.411,0.715,0.678,�k��,0.6,��
2019/10/17,07:40,0.714,1.012,0.672,1.249,0.883,0.409,0.714,0.677,-,CALM,��
2019/10/17,07:50,0.714,1.014,0.673,1.247,0.884,0.411,0.716,0.677,-,CALM,��
2019/10/17,08:00,0.715,1.013,0.674,1.249,0.881,0.412,0.714,0.678,-,CALM,��
2019/10/17,08:10,0.712,1.014,0.674,1.249,0.882,0.411,0.717,0.678,��,0.5,��
2019/10/17,08:20,0.713,1.014,0.673,1.247,0.881,0.408,0.714,0.679,�쐼,0.6,��
2019/10/17,08:30,0.714,1.009,0.672,1.247,0.882,0.409,0.713,0.677,��,0.6,��
2019/10/17,08:40,0.715,1.010,0.672,1.247,0.883,0.411,0.714,0.678,���k��,1.5,��
2019/10/17,08:50,0.717,1.012,0.670,1.247,0.882,0.411,0.714,0.679,-,CALM,��
2019/10/17,09:00,0.713,1.011,0.672,1.248,0.883,0.412,0.713,0.678,��,0.5,��
2019/10/17,09:10,0.713,1.012,0.673,1.251,0.883,0.410,0.714,0.678,�k��,1.6,��
2019/10/17,09:20,0.710,1.005,0.672,1.249,0.883,0.411,0.713,0.681,�k��,2.1,��
2019/10/17,09:30,0.715,1.007,0.673,1.252,0.883,0.411,0.714,0.678,�k��,1.8,��
2019/10/17,09:40,0.712,1.006,0.673,1.248,0.882,0.410,0.714,0.679,�k��,2.4,��
2019/10/17,09:50,0.716,1.010,0.672,1.250,0.880,0.408,0.714,0.681,�k�k��,2.0,��
2019/10/17,10:00,0.715,1.009,0.672,1.249,0.883,0.410,0.714,0.680,�k��,1.9,��
2019/10/17,10:10,0.716,1.008,0.671,1.248,0.883,0.409,0.713,0.677,�k�k��,2.4,��
2019/10/17,10:20,0.714,1.009,0.673,1.252,0.882,0.409,0.715,0.676,�k��,2.3,��
2019/10/17,10:30,0.718,1.011,0.672,1.251,0.885,0.409,0.714,0.676,�k�k��,1.8,��
2019/10/17,10:40,0.716,1.012,0.672,1.251,0.882,0.409,0.715,0.675,���k��,2.4,��
2019/10/17,10:50,0.716,1.013,0.673,1.252,0.883,0.409,0.715,0.675,��,1.5,��
2019/10/17,11:00,0.715,1.015,0.674,1.249,0.884,0.410,0.716,0.676,���쓌,2.7,��
2019/10/17,11:10,0.717,1.016,0.672,1.251,0.887,0.408,0.715,0.678,���쓌,2.4,��
2019/10/17,11:20,0.717,1.014,0.674,1.249,0.887,0.412,0.717,0.677,�쓌,3.6,��
2019/10/17,11:30,0.715,1.015,0.673,1.250,0.885,0.411,0.715,0.677,��쓌,3.5,��
2019/10/17,11:40,0.718,1.019,0.672,1.251,0.886,0.409,0.715,0.677,�쓌,2.8,��
2019/10/17,11:50,0.716,1.017,0.674,1.251,0.886,0.411,0.715,0.678,��,2.8,��
2019/10/17,12:00,0.718,1.018,0.673,1.252,0.887,0.411,0.716,0.678,�쓌,2.8,��
2019/10/17,12:10,0.717,1.024,0.674,1.250,0.887,0.412,0.715,0.676,�쓌,2.6,��
2019/10/17,12:20,0.718,1.022,0.675,1.252,0.885,0.411,0.715,0.676,�쓌,2.2,��
2019/10/17,12:30,0.718,1.022,0.675,1.251,0.889,0.411,0.716,0.677,���쓌,2.5,��
2019/10/17,12:40,0.718,1.022,0.676,1.251,0.890,0.412,0.716,0.677,�쓌,3.1,��
2019/10/17,12:50,0.719,1.022,0.675,1.251,0.888,0.410,0.716,0.678,�쓌,3.0,��
2019/10/17,13:00,0.719,1.022,0.674,1.251,0.889,0.413,0.717,0.677,�쓌,3.6,��
2019/10/17,13:10,0.714,1.020,0.674,1.249,0.888,0.411,0.715,0.679,��쓌,4.5,��
2019/10/17,13:20,0.715,1.019,0.676,1.253,0.890,0.410,0.716,0.678,�쓌,3.8,��
2019/10/17,13:30,0.716,1.019,0.674,1.253,0.889,0.413,0.716,0.678,��쓌,4.2,��
2019/10/17,13:40,0.716,1.021,0.675,1.254,0.889,0.411,0.716,0.677,��쓌,3.0,��
2019/10/17,13:50,0.718,1.021,0.676,1.252,0.887,0.411,0.717,0.678,��쓌,3.8,��
2019/10/17,14:00,0.716,1.021,0.675,1.252,0.888,0.411,0.716,0.679,��쓌,3.9,��
2019/10/17,14:10,0.717,1.020,0.675,1.252,0.889,0.410,0.717,0.679,��쓌,4.4,��
2019/10/17,14:20,0.717,1.021,0.675,1.256,0.889,0.412,0.716,0.680,��쓌,3.8,��
2019/10/17,14:30,0.718,1.023,0.676,1.254,0.890,0.410,0.716,0.678,��쓌,4.2,��
2019/10/17,14:40,0.719,1.023,0.675,1.252,0.890,0.410,0.716,0.679,��쓌,4.0,��
2019/10/17,14:50,0.718,1.022,0.675,1.252,0.890,0.411,0.717,0.679,��쓌,3.8,��
2019/10/17,15:00,0.718,1.023,0.675,1.253,0.891,0.413,0.717,0.679,��쓌,3.6,��
2019/10/17,15:10,0.719,1.025,0.675,1.256,0.890,0.411,0.716,0.677,��쓌,4.3,��
2019/10/17,15:20,0.718,1.023,0.676,1.253,0.887,0.412,0.716,0.677,��쓌,3.5,��
2019/10/17,15:30,0.716,1.020,0.677,1.252,0.890,0.411,0.717,0.677,�쓌,3.5,��
2019/10/17,15:40,0.714,1.025,0.673,1.255,0.888,0.411,0.716,0.678,��쓌,3.2,��
2019/10/17,15:50,0.716,1.024,0.675,1.254,0.889,0.413,0.715,0.678,�쓌,3.1,��
2019/10/17,16:00,0.717,1.027,0.674,1.252,0.891,0.413,0.715,0.679,�쓌,2.9,��
2019/10/17,16:10,0.714,1.026,0.674,1.254,0.887,0.415,0.715,0.680,��쓌,2.9,��
2019/10/17,16:20,0.716,1.029,0.676,1.255,0.889,0.414,0.717,0.677,��쓌,3.8,��
2019/10/17,16:30,0.716,1.031,0.675,1.253,0.889,0.414,0.716,0.680,��쓌,3.2,��
2019/10/17,16:40,0.719,1.031,0.677,1.253,0.888,0.414,0.715,0.679,��쓌,4.0,��
2019/10/17,16:50,0.718,1.032,0.679,1.253,0.890,0.414,0.717,0.681,��쓌,3.5,��
2019/10/17,17:00,0.718,1.030,0.678,1.256,0.889,0.416,0.715,0.681,��쓌,3.5,��
2019/10/17,17:10,0.719,1.032,0.678,1.255,0.889,0.412,0.715,0.681,��쓌,3.2,��
2019/10/17,17:20,0.720,1.031,0.678,1.253,0.889,0.412,0.718,0.681,��쓌,3.8,��
2019/10/17,17:30,0.720,1.029,0.679,1.253,0.888,0.413,0.718,0.679,��쓌,3.5,��
2019/10/17,17:40,0.720,1.032,0.678,1.254,0.890,0.413,0.717,0.681,��쓌,3.6,��
2019/10/17,17:50,0.719,1.031,0.679,1.251,0.890,0.414,0.717,0.680,��,3.5,��
2019/10/17,18:00,0.720,1.033,0.679,1.253,0.892,0.413,0.717,0.680,��,3.0,��
2019/10/17,18:10,0.720,1.030,0.677,1.254,0.892,0.414,0.716,0.680,��,2.8,��
2019/10/17,18:20,0.720,1.031,0.678,1.252,0.892,0.415,0.715,0.680,��,2.1,��
2019/10/17,18:30,0.717,1.028,0.677,1.253,0.891,0.415,0.718,0.680,��쐼,1.8,��
2019/10/17,18:40,0.718,1.030,0.678,1.257,0.892,0.414,0.718,0.681,��,1.7,��
2019/10/17,18:50,0.717,1.031,0.677,1.252,0.893,0.414,0.717,0.681,��,0.5,��
2019/10/17,19:00,0.719,1.032,0.679,1.253,0.891,0.414,0.718,0.681,-,CALM,��
2019/10/17,19:10,0.719,1.030,0.679,1.253,0.890,0.414,0.717,0.680,-,CALM,��
2019/10/17,19:20,0.719,1.032,0.678,1.257,0.892,0.414,0.716,0.682,�k,0.8,��
2019/10/17,19:30,0.719,1.029,0.679,1.253,0.894,0.413,0.716,0.681,-,CALM,��
2019/10/17,19:40,0.718,1.030,0.678,1.252,0.893,0.412,0.718,0.680,-,CALM,��
2019/10/17,19:50,0.718,1.031,0.678,1.255,0.893,0.413,0.717,0.681,�k�k��,2.0,��
2019/10/17,20:00,0.719,1.030,0.678,1.254,0.891,0.414,0.717,0.680,�k�k��,0.6,��
2019/10/17,20:10,0.719,1.030,0.677,1.256,0.893,0.414,0.716,0.681,�k�k��,1.0,��
2019/10/17,20:20,0.716,1.029,0.678,1.255,0.893,0.413,0.716,0.681,�k�k��,0.5,��
2019/10/17,20:30,0.717,1.029,0.679,1.255,0.893,0.413,0.717,0.681,�k��,0.5,��
2019/10/17,20:40,0.719,1.026,0.680,1.255,0.892,0.413,0.717,0.682,�k��,1.5,��
2019/10/17,20:50,0.718,1.030,0.678,1.255,0.893,0.413,0.715,0.681,�k��,1.7,��
2019/10/17,21:00,0.718,1.029,0.677,1.251,0.893,0.414,0.716,0.679,�k�k��,1.4,��
2019/10/17,21:10,0.719,1.028,0.677,1.255,0.894,0.411,0.716,0.680,�k�k��,1.7,��
2019/10/17,21:20,0.720,1.028,0.678,1.255,0.892,0.413,0.716,0.680,�k�k��,1.6,��
2019/10/17,21:30,0.717,1.027,0.679,1.253,0.893,0.412,0.715,0.680,�k�k��,2.2,��
2019/10/17,21:40,0.719,1.025,0.678,1.254,0.892,0.411,0.715,0.680,�k�k��,1.9,��
2019/10/17,21:50,0.720,1.026,0.678,1.253,0.893,0.412,0.716,0.682,�k�k��,1.5,��
2019/10/17,22:00,0.717,1.026,0.676,1.254,0.892,0.413,0.716,0.679,�k�k��,1.6,��
2019/10/17,22:10,0.720,1.026,0.677,1.253,0.893,0.411,0.718,0.680,�k,1.2,��
2019/10/17,22:20,0.720,1.028,0.678,1.255,0.893,0.413,0.716,0.681,�k,1.4,��
2019/10/17,22:30,0.717,1.024,0.678,1.256,0.891,0.414,0.718,0.681,�k,1.7,��
2019/10/17,22:40,0.720,1.029,0.680,1.255,0.892,0.411,0.717,0.680,�k,1.5,��
2019/10/17,22:50,0.718,1.027,0.677,1.254,0.890,0.412,0.717,0.681,�k,1.6,��
2019/10/17,23:00,0.718,1.031,0.676,1.254,0.892,0.411,0.718,0.681,�k,1.6,��
2019/10/17,23:10,0.718,1.029,0.678,1.256,0.892,0.413,0.716,0.681,�k,1.8,��
2019/10/17,23:20,0.718,1.027,0.678,1.254,0.893,0.413,0.715,0.681,�k�k��,1.5,��
2019/10/17,23:30,0.716,1.028,0.677,1.256,0.895,0.412,0.716,0.679,�k�k��,1.4,��
2019/10/17,23:40,0.719,1.028,0.678,1.255,0.892,0.413,0.715,0.682,�k�k��,1.1,��
2019/10/17,23:50,0.717,1.027,0.679,1.256,0.891,0.411,0.717,0.680,�k�k��,1.2,��
